User: anonymous   Login
Location: Unspecified
(0.0000°N, 0.0000°E)
Time: 22:02:13
(UTC+00:00)
Language:

Envisat - Orbit

View from above orbital plane
View from above orbital plane
View from above satellite
View from above satellite

Ground track
Ground track

The orbit data is extracted from the following two-line orbital elements,

1 27386U 02009A   17144.93567441 -.00000022 +00000-0 +65786-5 0  9995
2 27386 098.2333 191.1822 0001187 079.6673 280.4642 14.37895413797739
Epoch (UTC): 24 May 2017 22:27:22
Eccentricity: 0.0001187
inclination: 98.2333°
perigee height: 764 km
apogee height: 766 km
right ascension of ascending node: 191.1822°
argument of perigee: 79.6673°
revolutions per day: 14.37895413
mean anomaly at epoch: 280.4642°
orbit number at epoch: 79773

The dashed part of the orbit path shows where the satellite is in the earth's shadow,  

DLR